Eastsound, WA
on Saturday, January 26, 2013

Saturday
Previous Day Next Day
Daily Summary
 ActualAverage (KBLI)Record (KBLI)
Temperature
Mean Temperature °F 40°F  
Max Temperature 44°F 47°F 59°F (2003)
Min Temperature 37°F 33°F 10°F (1957)
Degree Days
Heating Degree Days 24 25  
Month to date heating degree days 673  
Cooling Degree Days 0 0  
Month to date cooling degree days 0  
Year to date cooling degree days 0  
Moisture
Dew Point 39°F   
Average Humidity 89    
Maximum Humidity 100    
Minimum Humidity 71    
Precipitation
Precipitation 0.00 in 0.14 in 1.10 in (1971)
Month to date precipitation 3.97  
Year to date precipitation 3.97  
Wind
Wind Speed 5 mph   
Max Wind Speed 17 mph   
Max Gust Speed 26 mph   
Visibility 9 miles   
Events Rain   

Key: T is trace of precipitation, MM is missing value
Source: NWS Daily Summary
Time(PST)TemperatureDew PointHumidity Pressure Visibility Wind DirectionWind SpeedGust SpeedPrecipitationEvents Conditions
12:15 AM 44.6°F 37.4°F 76% 29.86 in 10.0 miles South 6.9 mph - N/A   Clear
12:35 AM 44.6°F 39.2°F 81% 29.86 in 10.0 miles South 6.9 mph - N/A   Clear
12:55 AM 44.6°F 37.4°F 76% 29.85 in 10.0 miles South 8.1 mph - N/A   Clear
1:15 AM 44.6°F 37.4°F 76% 29.85 in 10.0 miles SSE 3.5 mph - N/A   Clear
1:35 AM 44.6°F 37.4°F 76% 29.85 in 10.0 miles SSE 3.5 mph - N/A   Clear
1:55 AM 44.6°F 37.4°F 76% 29.85 in 10.0 miles Calm Calm - N/A   Clear
2:15 AM 44.6°F 37.4°F 76% 29.86 in 10.0 miles SSE 3.5 mph - N/A   Clear
2:35 AM 44.6°F 37.4°F 76% 29.85 in 10.0 miles SSE 5.8 mph - N/A   Clear
2:55 AM 44.6°F 35.6°F 71% 29.84 in 10.0 miles SSE 4.6 mph - N/A   Partly Cloudy
3:15 AM 44.6°F 37.4°F 76% 29.84 in 10.0 miles SE 3.5 mph - N/A   Mostly Cloudy
3:35 AM 44.6°F 37.4°F 76% 29.84 in 10.0 miles South 6.9 mph - N/A   Overcast
3:55 AM 44.6°F 37.4°F 76% 29.84 in 10.0 miles SSE 8.1 mph - N/A   Overcast
4:15 AM 44.6°F 37.4°F 76% 29.83 in 10.0 miles SE 6.9 mph - N/A   Overcast
4:35 AM 44.6°F 37.4°F 76% 29.83 in 10.0 miles South 6.9 mph - N/A   Overcast
4:55 AM 44.6°F 37.4°F 76% 29.82 in 10.0 miles SSE 3.5 mph - N/A   Mostly Cloudy
5:15 AM 44.6°F 37.4°F 76% 29.82 in 10.0 miles South 6.9 mph - N/A   Scattered Clouds
5:35 AM 44.6°F 37.4°F 76% 29.82 in 10.0 miles SSE 4.6 mph - N/A   Mostly Cloudy
5:55 AM 44.6°F 37.4°F 76% 29.82 in 10.0 miles South 9.2 mph 19.6 mph N/A   Mostly Cloudy
6:15 AM 44.6°F 37.4°F 76% 29.82 in 10.0 miles South 10.4 mph 21.9 mph N/A   Scattered Clouds
6:35 AM 44.6°F 37.4°F 76% 29.81 in 10.0 miles South 11.5 mph 20.7 mph N/A   Partly Cloudy
6:55 AM 42.8°F 37.4°F 81% 29.82 in 10.0 miles South 17.3 mph 26.5 mph N/A   Partly Cloudy
7:15 AM 41.0°F 39.2°F 93% 29.82 in 5.0 miles South 13.8 mph 24.2 mph N/A Rain Light Rain
7:35 AM 41.0°F 39.2°F 93% 29.82 in 5.0 miles South 10.4 mph 20.7 mph N/A Rain Light Rain
7:55 AM 41.0°F 39.2°F 93% 29.84 in 9.0 miles SSE 8.1 mph 18.4 mph N/A Rain Light Rain
8:15 AM 41.0°F 39.2°F 93% 29.85 in 10.0 miles South 5.8 mph - N/A   Mostly Cloudy
8:35 AM 41.0°F 39.2°F 93% 29.85 in 7.0 miles SSE 3.5 mph - N/A   Mostly Cloudy
8:55 AM 41.0°F 37.4°F 87% 29.86 in 7.0 miles South 4.6 mph - N/A   Mostly Cloudy
9:15 AM 41.0°F 37.4°F 87% 29.86 in 9.0 miles South 5.8 mph - N/A   Mostly Cloudy
9:35 AM 41.0°F 37.4°F 87% 29.87 in 7.0 miles SSE 6.9 mph - N/A   Mostly Cloudy
9:55 AM 41.0°F 37.4°F 87% 29.87 in 9.0 miles South 4.6 mph - N/A Rain Light Rain
10:15 AM 41.0°F 37.4°F 87% 29.87 in 10.0 miles South 5.8 mph - N/A   Mostly Cloudy
10:35 AM 41.0°F 37.4°F 87% 29.88 in 10.0 miles South 4.6 mph - N/A Rain Light Rain
10:55 AM 41.0°F 37.4°F 87% 29.88 in 7.0 miles South 5.8 mph - N/A Rain Light Rain
11:15 AM 41.0°F 37.4°F 87% 29.88 in 5.0 miles South 6.9 mph - N/A Rain Light Rain
11:35 AM 41.0°F 39.2°F 93% 29.88 in 7.0 miles South 3.5 mph - N/A Rain Light Rain
11:55 AM 41.0°F 39.2°F 93% 29.88 in 7.0 miles South 4.6 mph - N/A Rain Light Rain
12:15 PM 41.0°F 39.2°F 93% 29.88 in 7.0 miles SSW 6.9 mph - N/A Rain Light Rain
12:35 PM 41.0°F 39.2°F 93% 29.88 in 5.0 miles South 5.8 mph - N/A Rain Light Rain
12:55 PM 41.0°F 39.2°F 93% 29.88 in 3.0 miles Calm Calm - N/A Rain Rain
1:15 PM 41.0°F 39.2°F 93% 29.88 in 4.0 miles Calm Calm - N/A Rain Light Rain
1:35 PM 41.0°F 39.2°F 93% 29.88 in 7.0 miles South 3.5 mph - N/A Rain Light Rain
1:55 PM 41.0°F 39.2°F 93% 29.88 in 8.0 miles South 8.1 mph - N/A Rain Light Rain
2:15 PM 41.0°F 39.2°F 93% 29.88 in 10.0 miles SSW 8.1 mph - N/A   Overcast
2:35 PM 41.0°F 39.2°F 93% 29.88 in 10.0 miles SSW 9.2 mph - N/A   Overcast
2:55 PM 41.0°F 39.2°F 93% 29.89 in 10.0 miles SSW 6.9 mph - N/A   Overcast
3:15 PM 42.8°F 41.0°F 93% 29.89 in 10.0 miles South 6.9 mph - N/A   Overcast
3:35 PM 41.0°F 41.0°F 100% 29.90 in 10.0 miles South 5.8 mph - N/A   Overcast
3:55 PM 41.0°F 41.0°F 100% 29.90 in 10.0 miles South 6.9 mph - N/A   Overcast
4:15 PM 41.0°F 41.0°F 100% 29.90 in 10.0 miles South 5.8 mph - N/A   Overcast
4:35 PM 42.8°F 41.0°F 93% 29.90 in 10.0 miles SSW 5.8 mph - N/A   Overcast
4:55 PM 42.8°F 41.0°F 93% 29.91 in 10.0 miles SSW 8.1 mph - N/A   Overcast
5:15 PM 41.0°F 41.0°F 100% 29.91 in 10.0 miles South 5.8 mph - N/A   Overcast
5:35 PM 41.0°F 41.0°F 100% 29.92 in 10.0 miles South 4.6 mph - N/A   Scattered Clouds
5:55 PM 41.0°F 41.0°F 100% 29.92 in 10.0 miles South 5.8 mph - N/A   Mostly Cloudy
6:15 PM 41.0°F 41.0°F 100% 29.93 in 10.0 miles SSW 4.6 mph - N/A   Overcast
6:35 PM 41.0°F 41.0°F 100% 29.93 in 9.0 miles Calm Calm - N/A Rain Light Rain
6:55 PM 41.0°F 39.2°F 93% 29.94 in 8.0 miles Calm Calm - N/A   Mostly Cloudy
7:15 PM 41.0°F 39.2°F 93% 29.94 in 10.0 miles Calm Calm - N/A   Overcast
7:35 PM 41.0°F 39.2°F 93% 29.95 in 10.0 miles Calm Calm - N/A   Overcast
7:55 PM 41.0°F 41.0°F 100% 29.95 in 10.0 miles Calm Calm - N/A   Overcast
8:15 PM 41.0°F 39.2°F 93% 29.96 in 10.0 miles Calm Calm - N/A   Mostly Cloudy
8:35 PM 41.0°F 39.2°F 93% 29.96 in 10.0 miles Calm Calm - N/A   Mostly Cloudy
8:55 PM 41.0°F 39.2°F 93% 29.96 in 10.0 miles Calm Calm - N/A   Overcast
9:15 PM 39.2°F 39.2°F 100% 29.97 in 8.0 miles Calm Calm - N/A   Overcast
9:35 PM 39.2°F 39.2°F 100% 29.97 in 10.0 miles Calm Calm - N/A   Overcast
9:55 PM 39.2°F 39.2°F 100% 29.98 in 5.0 miles Calm Calm - N/A   Mostly Cloudy
10:15 PM 37.4°F 37.4°F 100% 29.98 in 1.0 miles Calm Calm - N/A   Overcast
10:35 PM 37.4°F 37.4°F 100% 29.99 in 1.5 miles Calm Calm - N/A   Overcast
10:55 PM 37.4°F 37.4°F 100% 29.99 in 5.0 miles Calm Calm - N/A   Mostly Cloudy
11:15 PM 39.2°F 39.2°F 100% 30.00 in 9.0 miles Calm Calm - N/A   Mostly Cloudy
11:35 PM 39.2°F 39.2°F 100% 30.00 in 7.0 miles Calm Calm - N/A   Overcast
11:55 PM 39.2°F 39.2°F 100% 30.00 in 8.0 miles Calm Calm - N/A   Overcast
Moon Phase
Jan. 26 Jan. 26 Feb. 03 Feb. 10 Feb. 17
Sunrise:07:48 AM (PST) Moon Rise:05:05 PM (PST)1/26
Sunset:05:00 PM (PST) Moon Set:07:06 AM (PST)1/26

Copyright © 2014 The Weather Underground, Inc.